Location: Munkebjergskolens Observatorium
(55.3864°N, 10.3987°E)
Time: 06:25:54
(UTC+01:00)

SPROUT - Visible Passes

Search period start: 23 March 2023 00:00
Search period end: 02 April 2023 01:00
Orbit: 566 x 579 km, 98.0° (Epoch: 22 March)

Date Brightness Start Highest point End Pass type
(mag) Time Alt. Az. Time Alt. Az. Time Alt. Az.
23 Mar ? 01:14:44 20° NNW 01:14:44 20° NNW 01:16:06 10° NNW visible
23 Mar ? 23:41:09 14° NE 23:41:09 14° NE 23:42:28 10° NNE visible
24 Mar ? 01:17:20 21° NNW 01:17:20 21° NNW 01:18:47 10° NNW visible
24 Mar ? 23:43:42 15° NE 23:43:42 15° NE 23:45:11 10° NNE visible
25 Mar ? 01:19:52 22° NNW 01:19:52 22° NNW 01:21:25 10° NNW visible
25 Mar ? 23:46:12 15° NE 23:46:12 15° NE 23:47:50 10° NNE visible
26 Mar ? 01:22:22 23° NNW 01:22:22 23° NNW 01:24:01 10° NNW visible
27 Mar ? 00:48:39 16° NE 00:48:39 16° NE 00:50:27 10° NNE visible
27 Mar ? 02:24:49 24° NNW 02:24:49 24° NNW 02:26:33 10° NNW visible
28 Mar ? 00:51:04 17° NE 00:51:04 17° NE 00:53:00 10° NNE visible
28 Mar ? 02:27:13 25° NNW 02:27:13 25° NNW 02:29:03 10° NNW visible
29 Mar ? 00:53:25 17° NE 00:53:25 17° NE 00:55:30 10° NNE visible
29 Mar ? 02:29:34 27° NNW 02:29:34 27° NNW 02:31:29 10° NNW visible
30 Mar ? 00:55:43 18° NE 00:55:43 18° NE 00:57:56 10° NNE visible
30 Mar ? 02:31:52 28° NNW 02:31:52 28° NNW 02:33:53 10° NNW visible
31 Mar ? 00:57:59 19° NE 00:57:59 19° NE 01:00:20 10° N visible
31 Mar ? 02:34:07 29° NNW 02:34:07 29° NNW 02:36:13 10° NNW visible
01 Apr ? 01:00:11 20° NE 01:00:11 20° NE 01:02:41 10° N visible
01 Apr ? 02:36:20 30° NNW 02:36:20 30° NNW 02:38:31 10° NNW visible
